Date String (YYYY-MM-DD hh:mm:ss) UTC,Instrument flags,absolute air pressure of the measurement (hPa),sample flow rate (lpm),inlet stack bypass flow (lpm),air temperature of the measurement (°C),ambient temperature measured by the external sensor (°C),aerosol sample conditioner tube jacket temperature (°C),OPC LED temperature (°C),internal box temperature (°C),relative humidity of the measurement (%),span deviation,mass concentration of particles derived from Lorenz-Mie calculation of OPC scattering (μg/m³),mass concentration of particles derived from Lorenz-Mie calculation of OPC scattering (μg/m³),mass concentration of particles derived from Lorenz-Mie calculation of OPC scattering (μg/m³)
DateTimeUTC,F1_M11,P_M11,Q1_M11,Q2_M11,T1_M11,T2_M11,T3_M11,T4_M11,T5_M11,U1_M11,ZSPAN_M11,X0_M11,X2_M11,X1_M11
2024-01-11 21:00:00,SystemResetWarning,0816.2,5.01,000.00,019.0,018.3,000.0,027.4,020.0,7.7,0000.0,0012.30,0004.27,0003.43
2024-01-11 21:01:00,SystemResetWarning,0816.2,4.99,000.00,019.0,018.3,000.0,027.4,020.0,7.7,0000.0,0012.88,0004.34,0003.43
2024-01-11 21:02:00,SystemResetWarning,0816.2,5.00,000.00,019.0,018.3,000.0,027.4,020.0,7.7,0000.0,0013.43,0004.42,0003.44
2024-01-11 21:03:00,SystemResetWarning,0816.2,5.00,000.00,019.0,018.2,000.0,027.4,020.0,7.7,0001.4,0013.60,0004.48,0003.46
2024-01-11 21:04:00,SystemResetWarning,0816.2,5.00,000.00,019.0,018.3,000.0,027.4,020.0,7.6,0003.1,0013.51,0004.52,0003.47
2024-01-11 21:05:00,SystemResetWarning,0816.2,5.00,000.00,019.0,018.3,000.0,027.4,020.0,7.7,0001.5,0013.73,0004.58,0003.49
2024-01-11 21:06:00,SystemResetWarning,0816.2,4.99,000.00,019.0,018.2,000.0,027.4,020.0,7.7,0001.1,0013.90,0004.60,0003.49
2024-01-11 21:07:00,SystemResetWarning,0816.2,5.00,000.00,019.0,018.2,000.0,027.4,020.0,7.7,0003.0,0014.71,0004.69,0003.52
2024-01-11 21:08:00,SystemResetWarning,0816.2,5.00,000.00,019.0,018.3,000.0,027.4,020.0,7.7,0000.5,0014.43,0004.75,0003.53
2024-01-11 21:09:00,SystemResetWarning,0816.2,5.00,000.00,019.0,018.3,000.0,027.4,020.0,7.7,0000.0,0013.64,0004.75,0003.53
2024-01-11 21:10:00,SystemResetWarning,0816.2,5.00,000.00,019.0,018.3,000.0,027.4,020.0,7.8,0000.0,0013.95,0004.75,0003.54
2024-01-11 21:11:00,SystemResetWarning,0816.2,5.00,000.00,019.0,018.2,000.0,027.4,020.0,7.8,0000.0,0013.67,0004.76,0003.55
2024-01-11 21:12:00,SystemResetWarning,0816.3,5.00,000.00,018.9,018.2,000.0,027.4,020.0,7.9,0000.0,0013.59,0004.75,0003.55
2024-01-11 21:13:00,SystemResetWarning,0816.3,5.00,000.00,018.9,018.1,000.0,027.4,020.0,7.9,0000.0,0013.92,0004.67,0003.54
2024-01-11 21:14:00,SystemResetWarning,0816.3,5.00,000.00,018.9,018.1,000.0,027.4,020.0,7.9,0000.0,0013.92,0004.65,0003.54
2024-01-11 21:15:00,SystemResetWarning,0816.3,5.00,000.00,018.9,018.0,000.0,027.4,020.0,7.9,0000.0,0014.08,0004.65,0003.53
2024-01-11 21:16:00,SystemResetWarning,0816.4,5.00,000.00,018.9,018.0,000.0,027.4,020.0,8.0,0000.0,0015.03,0004.69,0003.53
2024-01-11 21:17:00,SystemResetWarning,0816.4,5.00,000.00,018.9,018.0,000.0,027.4,020.0,8.0,0000.0,0016.87,0004.68,0003.52
2024-01-11 21:18:00,SystemResetWarning,0816.4,5.00,000.00,018.9,018.0,000.0,027.4,020.0,8.1,0000.0,0017.12,0004.65,0003.51
2024-01-11 21:19:00,SystemResetWarning,0816.4,5.00,000.00,018.9,018.0,000.0,027.4,020.0,8.1,0000.0,0017.28,0004.57,0003.48
2024-01-11 21:20:00,SystemResetWarning,0816.4,5.01,000.00,018.9,017.9,000.0,027.4,020.0,8.2,0000.0,0017.79,0004.57,0003.48
2024-01-11 21:21:00,SystemResetWarning,0816.4,5.00,000.00,018.9,017.9,000.0,027.4,020.0,8.2,0000.0,0017.70,0004.60,0003.48
2024-01-11 21:22:00,SystemResetWarning,0816.3,5.00,000.00,018.9,017.8,000.0,027.4,020.0,8.2,0000.0,0017.59,0004.59,0003.48
2024-01-11 21:23:00,SystemResetWarning,0816.3,5.00,000.00,018.9,017.8,000.0,027.4,020.0,8.2,0000.0,0017.35,0004.59,0003.48
2024-01-11 21:24:00,SystemResetWarning,0816.4,5.00,000.00,018.9,017.8,000.0,027.4,020.0,8.1,0000.0,0016.61,0004.63,0003.48
2024-01-11 21:25:00,SystemResetWarning,0816.4,5.00,000.00,018.9,017.8,000.0,027.4,020.0,8.1,0000.0,0016.17,0004.61,0003.48
2024-01-11 21:26:00,SystemResetWarning,0816.4,5.00,000.00,018.9,017.8,000.0,027.4,020.0,8.1,0000.0,0015.35,0004.61,0003.47
2024-01-11 21:27:00,SystemResetWarning,0816.4,5.00,000.00,018.9,018.0,000.0,027.3,020.4,8.1,0000.0,0014.00,0004.58,0003.48
2024-01-11 21:28:00,SystemResetWarning,0816.5,5.01,000.00,019.1,018.8,000.0,027.3,020.9,8.0,0000.0,0012.50,0004.60,0003.49
2024-01-11 21:29:00,SystemResetWarning,0816.5,5.00,000.00,019.2,019.1,000.0,027.3,020.8,7.9,0000.0,0013.46,0004.60,0003.50
2024-01-11 21:30:00,SystemResetWarning,0816.5,5.00,000.00,019.2,019.0,000.0,027.3,020.4,7.9,0000.0,0013.09,0004.63,0003.52
2024-01-11 21:31:00,SystemResetWarning,0816.5,4.99,000.00,019.1,018.8,000.0,027.4,020.2,8.0,0000.0,0012.69,0004.62,0003.52
2024-01-11 21:32:00,SystemResetWarning,0816.5,5.01,000.00,019.1,018.6,000.0,027.4,020.0,8.1,0000.0,0013.32,0004.65,0003.51
2024-01-11 21:33:00,SystemResetWarning,0816.5,5.01,000.00,019.0,018.4,000.0,027.4,020.0,8.1,0000.0,0014.18,0004.64,0003.51
2024-01-11 21:34:00,SystemResetWarning,0816.5,5.00,000.00,019.0,018.3,000.0,027.4,020.0,8.1,0000.0,0015.50,0004.59,0003.51
2024-01-11 21:35:00,SystemResetWarning,0816.6,5.00,000.00,019.0,018.1,000.0,027.4,020.0,8.1,0000.0,0016.07,0004.58,0003.52
2024-01-11 21:36:00,SystemResetWarning,0816.6,4.99,000.00,019.0,018.0,000.0,027.4,020.0,8.1,0000.0,0016.38,0004.64,0003.54
2024-01-11 21:37:00,SystemResetWarning,0816.6,4.99,000.00,019.0,018.0,000.0,027.4,020.0,8.1,0000.0,0016.61,0004.66,0003.56
2024-01-11 21:38:00,SystemResetWarning,0816.6,5.00,000.00,018.9,017.9,000.0,027.4,020.0,8.0,0000.0,0016.60,0004.64,0003.58
2024-01-11 21:39:00,SystemResetWarning,0816.7,5.00,000.00,018.9,017.9,000.0,027.4,020.0,7.9,0000.0,0016.11,0004.61,0003.58
2024-01-11 21:40:00,SystemResetWarning,0816.6,5.00,000.00,018.9,017.8,000.0,027.4,020.0,7.9,0000.0,0014.69,0004.59,0003.58
2024-01-11 21:41:00,SystemResetWarning,0816.6,5.01,000.00,018.9,017.8,000.0,027.4,020.0,7.8,0000.0,0015.19,0004.60,0003.59
2024-01-11 21:42:00,SystemResetWarning,0816.7,5.01,000.00,018.9,017.8,000.0,027.4,020.0,7.8,0000.0,0015.60,0004.60,0003.60
2024-01-11 21:43:00,SystemResetWarning,0816.7,5.00,000.00,018.9,017.8,000.0,027.4,020.0,7.8,0000.0,0014.82,0004.58,0003.61
2024-01-11 21:44:00,SystemResetWarning,0816.8,5.00,000.00,018.9,017.7,000.0,027.4,020.0,7.8,0000.0,0014.25,0004.63,0003.63
2024-01-11 21:45:00,SystemResetWarning,0816.8,5.00,000.00,018.9,018.0,000.0,027.4,020.4,7.9,0000.0,0012.71,0004.64,0003.64
2024-01-11 21:46:00,SystemResetWarning,0816.8,5.00,000.00,019.0,018.8,000.0,027.4,020.8,7.9,0000.0,0012.06,0004.64,0003.65
2024-01-11 21:47:00,SystemResetWarning,0816.8,4.99,000.00,019.2,019.3,000.0,027.4,020.9,7.9,0000.0,0011.91,0004.63,0003.64
2024-01-11 21:48:00,SystemResetWarning,0816.8,4.99,000.00,019.2,019.2,000.0,027.4,020.6,8.0,0000.0,0012.29,0004.64,0003.65
2024-01-11 21:49:00,SystemResetWarning,0816.7,5.01,000.00,019.2,019.0,000.0,027.4,020.3,7.9,0000.0,0013.03,0004.69,0003.65
2024-01-11 21:50:00,SystemResetWarning,0816.7,5.01,000.00,019.1,018.7,000.0,027.4,020.1,7.9,0000.0,0012.97,0004.68,0003.66
2024-01-11 21:51:00,SystemResetWarning,0816.7,5.00,000.00,019.1,018.5,000.0,027.4,020.0,7.9,0000.0,0013.49,0004.74,0003.68
2024-01-11 21:52:00,SystemResetWarning,0816.8,5.00,000.00,019.1,018.4,000.0,027.4,020.0,7.9,0000.0,0013.44,0004.77,0003.69
2024-01-11 21:53:00,SystemResetWarning,0816.9,5.00,000.00,019.0,018.2,000.0,027.4,020.0,7.9,0000.0,0012.66,0004.79,0003.72
2024-01-11 21:54:00,SystemResetWarning,0816.9,5.00,000.00,019.0,018.1,000.0,027.4,020.0,7.9,0000.0,0012.55,0004.82,0003.73
2024-01-11 21:55:00,SystemResetWarning,0816.8,5.00,000.00,019.0,018.1,000.0,027.4,020.0,7.9,0000.0,0012.73,0004.84,0003.75
2024-01-11 21:56:00,SystemResetWarning,0816.9,5.01,000.00,019.0,018.0,000.0,027.4,020.0,7.9,0000.0,0012.46,0004.85,0003.77
2024-01-11 21:57:00,SystemResetWarning,0816.9,5.01,000.00,018.9,018.0,000.0,027.4,020.0,7.9,0000.0,0013.02,0004.89,0003.79
2024-01-11 21:58:00,SystemResetWarning,0816.9,4.99,000.00,018.9,017.9,000.0,027.4,020.0,7.9,0000.0,0013.32,0004.92,0003.80
2024-01-11 21:59:00,SystemResetWarning,0816.8,4.99,000.00,018.9,017.9,000.0,027.4,020.0,7.9,0000.0,0012.91,0004.93,0003.82
